2019-038N (44398 NORAD) Tracking and Keplerian Element Data

This shows tracking and keplerian element data for the satellite.

Feedback or suggestion? Click here.




ElementValue
Catalog44398
Name2019-038N
Epoch Orbit232
Epoch Day201.85675739
Epoch Year2019
RAAN163.5075
Inclination97.4899
Eccentricity0.0025153
Argument of Perigee189.3496
Mean Anonmoly170.7269
Mean Motion15.11577009
Decay Rate6.29E-06
L11 44398U 19038N 19201.85675739 .00000629 00000-0 40628-4 0 9993
L22 44398 97.4899 163.5075 0025153 189.3496 170.7269 15.11577009 2324

Live tracking and technical data element details for 2019-038N (NORAD 44398). 2019-038N can be tracked NOW for your location showing map with azimuth and elevation plus other details from your city location.

Track the satellite on the map from your city or location and see movement details for azimuth, elevation, latitude, longitude, range, height, and movement on the map or in text.







IsCatalogInMostPopularTable: catalog: 44398, numindb: 2
Update: records affected: 1



GetName: 44398 2019-038N

Hit Count: updated at: Sun, 21 Jul 2019 21:32:06 GMT